KRP501 LRTR-LBSF

Flight info

Callsign KRP501
Flight time 0h 37m
Altitude 35000
Route MAVIT DCT DONIV DCT OBAGI DCT NISVA
Aircraft A319/M-SDE3FGHIRWY/LB1

Departure

Time 2026-04-28 13:32
Airport Timișoara Traian Vuia International Airport (LRTR)

Arrival

Time 2026-04-28 14:09
Airport Sofia Airport (LBSF)
Time Latitude Longitude Altitude Speed Heading
2026-04-28 13:17 45.81091 21.32015 345 ft 0 kts 199°
2026-04-28 13:20 45.81091 21.32016 345 ft 0 kts 199°
2026-04-28 13:24 45.81097 21.32019 347 ft 2 kts 201°
2026-04-28 13:25 45.81115 21.32031 353 ft 3 kts 217°
2026-04-28 13:25 45.81126 21.32043 353 ft 3 kts 233°
2026-04-28 13:25 45.81134 21.32073 342 ft 2 kts 286°
2026-04-28 13:25 45.81133 21.32077 342 ft 1 kts 289°
2026-04-28 13:26 45.81133 21.32078 342 ft 0 kts 289°
2026-04-28 13:27 45.81135 21.32072 342 ft 3 kts 291°
2026-04-28 13:27 45.81168 21.31962 342 ft 15 kts 290°
2026-04-28 13:28 45.81204 21.31823 344 ft 15 kts 289°
2026-04-28 13:28 45.81241 21.31676 342 ft 16 kts 290°
2026-04-28 13:28 45.81308 21.31578 344 ft 15 kts 360°
2026-04-28 13:28 45.81408 21.31624 341 ft 16 kts 21°
2026-04-28 13:29 45.81501 21.31688 337 ft 12 kts 62°
2026-04-28 13:29 45.81493 21.31757 339 ft 0 kts 110°
2026-04-28 13:31 45.81493 21.31758 339 ft 4 kts 110°
2026-04-28 13:31 45.81387 21.32181 348 ft 84 kts 109°
2026-04-28 13:31 45.81112 21.33282 345 ft 148 kts 110°
2026-04-28 13:32 45.80716 21.34801 768 ft 161 kts 107°
2026-04-28 13:32 45.80285 21.36270 1532 ft 162 kts 117°
2026-04-28 13:32 45.79359 21.37376 1935 ft 189 kts 158°
2026-04-28 13:32 45.78076 21.38021 2391 ft 209 kts 159°
2026-04-28 13:33 45.76625 21.38767 2864 ft 234 kts 159°
2026-04-28 13:33 45.75007 21.39608 3410 ft 259 kts 159°
2026-04-28 13:33 45.73265 21.40520 4224 ft 270 kts 159°
2026-04-28 13:33 45.71483 21.41455 5265 ft 274 kts 159°
2026-04-28 13:34 45.69678 21.42404 6238 ft 278 kts 159°
2026-04-28 13:34 45.67841 21.43376 7174 ft 283 kts 160°
2026-04-28 13:34 45.65998 21.44353 8069 ft 289 kts 160°
2026-04-28 13:34 45.64083 21.45366 8984 ft 295 kts 161°
2026-04-28 13:35 45.62132 21.46397 9855 ft 302 kts 161°
2026-04-28 13:35 45.60112 21.47463 10424 ft 319 kts 162°
2026-04-28 13:35 45.57979 21.48585 10809 ft 339 kts 162°
2026-04-28 13:35 45.55732 21.49769 11526 ft 347 kts 162°
2026-04-28 13:36 45.53448 21.50976 12327 ft 352 kts 162°
2026-04-28 13:36 45.51132 21.52200 13148 ft 356 kts 162°
2026-04-28 13:36 45.48783 21.53436 13936 ft 361 kts 162°
2026-04-28 13:36 45.46442 21.54664 14627 ft 365 kts 162°
2026-04-28 13:37 45.44037 21.55927 15304 ft 369 kts 163°
2026-04-28 13:37 45.41611 21.57200 16006 ft 373 kts 163°
2026-04-28 13:37 45.39155 21.58484 16679 ft 377 kts 163°
2026-04-28 13:37 45.36698 21.59769 17333 ft 382 kts 163°
2026-04-28 13:38 45.34182 21.61086 18010 ft 386 kts 163°
2026-04-28 13:38 45.31650 21.62409 18643 ft 390 kts 163°
2026-04-28 13:38 45.29079 21.63747 19224 ft 394 kts 163°
2026-04-28 13:38 45.26482 21.65100 19807 ft 398 kts 163°
2026-04-28 13:39 45.23898 21.66448 20377 ft 402 kts 163°
2026-04-28 13:39 45.21256 21.67826 20945 ft 406 kts 164°
2026-04-28 13:39 45.18583 21.69217 21512 ft 410 kts 164°
2026-04-28 13:39 45.15888 21.70615 22075 ft 414 kts 164°
2026-04-28 13:40 45.13166 21.72030 22637 ft 418 kts 165°
2026-04-28 13:40 45.10425 21.73453 23193 ft 422 kts 164°
2026-04-28 13:40 45.07644 21.74892 23744 ft 426 kts 165°
2026-04-28 13:40 45.04847 21.76341 24202 ft 430 kts 165°
2026-04-28 13:41 45.02058 21.77789 24627 ft 434 kts 165°
2026-04-28 13:41 44.99202 21.79268 25051 ft 438 kts 165°
2026-04-28 13:41 44.96324 21.80757 25481 ft 441 kts 165°
2026-04-28 13:41 44.93425 21.82249 25912 ft 445 kts 165°
2026-04-28 13:42 44.90495 21.83754 26333 ft 449 kts 165°
2026-04-28 13:42 44.87545 21.85267 26742 ft 453 kts 165°
2026-04-28 13:42 44.84613 21.86767 27135 ft 456 kts 165°
2026-04-28 13:42 44.81606 21.88306 27526 ft 460 kts 165°
2026-04-28 13:43 44.78580 21.89857 27916 ft 463 kts 164°
2026-04-28 13:43 44.75533 21.91421 28308 ft 467 kts 165°
2026-04-28 13:43 44.72472 21.92990 28672 ft 470 kts 164°
2026-04-28 13:43 44.69422 21.94550 29068 ft 473 kts 164°
2026-04-28 13:44 44.66310 21.96138 29474 ft 477 kts 164°
2026-04-28 13:44 44.63180 21.97733 29870 ft 480 kts 164°
2026-04-28 13:44 44.60018 21.99341 30233 ft 483 kts 164°
2026-04-28 13:44 44.56838 22.00958 30542 ft 486 kts 164°
2026-04-28 13:45 44.53657 22.02575 30861 ft 488 kts 164°
2026-04-28 13:45 44.50496 22.04177 31044 ft 489 kts 164°
2026-04-28 13:45 44.44089 22.07421 31090 ft 488 kts 164°
2026-04-28 13:46 44.37722 22.10642 31087 ft 488 kts 164°
2026-04-28 13:46 44.31315 22.13860 31083 ft 488 kts 164°
2026-04-28 13:47 44.24919 22.17075 31085 ft 487 kts 164°
2026-04-28 13:47 44.18572 22.20268 31085 ft 487 kts 164°
2026-04-28 13:48 44.12189 22.23467 31077 ft 486 kts 164°
2026-04-28 13:48 44.05849 22.26633 31076 ft 486 kts 163°
2026-04-28 13:49 43.99479 22.29801 31078 ft 485 kts 163°
2026-04-28 13:49 43.93101 22.32968 31076 ft 485 kts 163°
2026-04-28 13:50 43.86772 22.36115 31074 ft 485 kts 163°
2026-04-28 13:50 43.80396 22.39269 31076 ft 485 kts 163°
2026-04-28 13:51 43.74066 22.42393 31079 ft 485 kts 163°
2026-04-28 13:51 43.67686 22.45532 31079 ft 485 kts 163°
2026-04-28 13:52 43.61351 22.48646 31080 ft 485 kts 163°
2026-04-28 13:52 43.54983 22.51772 31083 ft 485 kts 163°
2026-04-28 13:53 43.48673 22.54865 31084 ft 484 kts 163°
2026-04-28 13:53 43.42354 22.57946 30888 ft 474 kts 163°
2026-04-28 13:54 43.39263 22.59451 30439 ft 467 kts 163°
2026-04-28 13:54 43.36174 22.60953 29257 ft 476 kts 163°
2026-04-28 13:54 43.33016 22.62486 28153 ft 481 kts 163°
2026-04-28 13:54 43.29869 22.64015 27397 ft 478 kts 163°
2026-04-28 13:55 43.26748 22.65533 26739 ft 473 kts 163°
2026-04-28 13:55 43.23666 22.67027 25590 ft 479 kts 163°
2026-04-28 13:55 43.20507 22.68555 24665 ft 480 kts 163°
2026-04-28 13:55 43.17365 22.70074 23929 ft 476 kts 163°
2026-04-28 13:56 43.14252 22.71580 23175 ft 471 kts 163°
2026-04-28 13:56 43.11212 22.73049 22445 ft 465 kts 162°
2026-04-28 13:56 43.08174 22.74514 21758 ft 459 kts 162°
2026-04-28 13:56 43.05177 22.75954 21094 ft 453 kts 162°
2026-04-28 13:57 43.02210 22.77379 20450 ft 448 kts 163°
2026-04-28 13:57 42.99301 22.78851 19820 ft 444 kts 157°
2026-04-28 13:57 42.96692 22.81068 19250 ft 442 kts 141°
2026-04-28 13:57 42.94584 22.84028 18675 ft 438 kts 131°
2026-04-28 13:58 42.92607 22.87181 18057 ft 435 kts 131°
2026-04-28 13:58 42.90651 22.90311 17435 ft 431 kts 130°
2026-04-28 13:58 42.89002 22.93704 16871 ft 427 kts 119°
2026-04-28 13:58 42.87572 22.97234 16308 ft 424 kts 119°
2026-04-28 13:59 42.86140 23.00771 15511 ft 427 kts 119°
2026-04-28 13:59 42.84721 23.04274 14887 ft 426 kts 119°
2026-04-28 13:59 42.83285 23.07813 14233 ft 425 kts 119°
2026-04-28 13:59 42.81867 23.11296 13977 ft 413 kts 119°
2026-04-28 14:00 42.80491 23.14668 13699 ft 399 kts 119°
2026-04-28 14:00 42.79147 23.17959 12730 ft 395 kts 119°
2026-04-28 14:00 42.77841 23.21159 11824 ft 388 kts 119°
2026-04-28 14:00 42.76544 23.24336 10915 ft 381 kts 119°
2026-04-28 14:01 42.75261 23.27469 10046 ft 374 kts 119°
2026-04-28 14:01 42.74001 23.30538 9206 ft 365 kts 119°
2026-04-28 14:01 42.72810 23.33449 9048 ft 337 kts 119°
2026-04-28 14:01 42.71714 23.36123 8920 ft 312 kts 120°
2026-04-28 14:02 42.70692 23.38618 8793 ft 292 kts 120°
2026-04-28 14:02 42.69731 23.40962 8668 ft 280 kts 120°
2026-04-28 14:02 42.68804 23.43220 8538 ft 268 kts 120°
2026-04-28 14:02 42.67897 23.45422 8220 ft 266 kts 120°
2026-04-28 14:03 42.66992 23.47614 7841 ft 265 kts 120°
2026-04-28 14:03 42.66098 23.49772 7643 ft 257 kts 120°
2026-04-28 14:03 42.65246 23.51832 7473 ft 249 kts 120°
2026-04-28 14:03 42.64402 23.53875 7170 ft 247 kts 120°
2026-04-28 14:04 42.63545 23.55949 6591 ft 255 kts 120°
2026-04-28 14:04 42.62680 23.58051 6178 ft 249 kts 118°
2026-04-28 14:04 42.62212 23.60225 6051 ft 237 kts 93°
2026-04-28 14:04 42.62473 23.62408 5922 ft 235 kts 67°
2026-04-28 14:05 42.63384 23.64197 5767 ft 235 kts 43°
2026-04-28 14:05 42.64794 23.65326 5192 ft 238 kts 15°
2026-04-28 14:05 42.66418 23.65458 4877 ft 232 kts 347°
2026-04-28 14:05 42.67759 23.64416 4623 ft 227 kts 309°
2026-04-28 14:06 42.68381 23.62492 4395 ft 224 kts 277°
2026-04-28 14:06 42.68517 23.60386 4114 ft 224 kts 273°
2026-04-28 14:06 42.68636 23.58269 3813 ft 223 kts 274°
2026-04-28 14:06 42.68762 23.56201 3526 ft 216 kts 274°
2026-04-28 14:07 42.68886 23.54185 3249 ft 210 kts 274°
2026-04-28 14:07 42.69005 23.52233 2984 ft 206 kts 274°
2026-04-28 14:07 42.69121 23.50345 2699 ft 195 kts 274°
2026-04-28 14:07 42.69230 23.48573 2444 ft 179 kts 274°
2026-04-28 14:08 42.69326 23.46996 2221 ft 157 kts 274°
2026-04-28 14:08 42.69410 23.45593 2025 ft 143 kts 274°
2026-04-28 14:08 42.69493 23.44279 1841 ft 137 kts 274°
2026-04-28 14:08 42.69544 23.43436 1750 ft 131 kts 273°
2026-04-28 14:09 42.69623 23.42110 1751 ft 82 kts 275°
2026-04-28 14:09 42.69580 23.41550 1749 ft 43 kts 245°
2026-04-28 14:09 42.69497 23.41304 1748 ft 20 kts 248°
2026-04-28 14:09 42.69397 23.41194 1750 ft 19 kts 191°
2026-04-28 14:10 42.69264 23.41160 1750 ft 20 kts 192°
2026-04-28 14:10 42.69135 23.41119 1750 ft 17 kts 181°
2026-04-28 14:10 42.69058 23.41144 1744 ft 0 kts 162°
2026-04-28 14:11 42.69057 23.41144 1744 ft 0 kts 162°